Lakeland, FL

4:26 AM EST on February 07, 2016 (GMT -0500)
Lakeland Linder Regional

Weather History for KLAL - September, 2013

Change the Weather History Date:

Friday, September 13, 2013

  Actual Average (KPCM) Record (KPCM)
Temperature  
Mean Temperature 79 °F -  
Max Temperature 89 °F 90 °F - (-1)
Min Temperature 69 °F 71 °F - (-1)
Cooling Degree Days 14    
Growing Degree Days 29 (Base 50)    
Moisture  
Dew Point 70 °F    
Average Humidity 84    
Maximum Humidity 100    
Minimum Humidity 43    
Precipitation  
Precipitation 0.00 in - - ()
Sea Level Pressure  
Sea Level Pressure 29.90 in    
Wind  
Wind Speed 1 mph (NW)    
Max Wind Speed 8 mph    
Max Gust Speed -    
Visibility 9 miles    
Events Fog    
Averages and records for this station are not official NWS values.
T = Trace of Precipitation, MM = Missing Value Source: NWS Daily Summary

Daily Weather History Graph

Daily Weather History Graph

Search for Another Location

Airport or City:

Trip Planner

Search our weather history database for the weather conditions in past years. The results will help you decide how hot, cold, wet, or windy it might be!

Date:

Astronomy

Sep. 13, 2013 Rise Set
Actual Time 7:12 AM EDT 7:34 PM EDT
Civil Twilight 6:48 AM EDT 7:58 PM EDT
Nautical Twilight 6:21 AM EDT 8:25 PM EDT
Astronomical Twilight 5:53 AM EDT 8:53 PM EDT
Moon 3:02 PM EDT (9/13) 1:02 AM EDT (9/13)
Length of Visible Light 13h 09m
Length of Day
12h 22m
First Quarter, 61% of the Moon is Illuminated
Sep 13
First Quarter
Sep 19
Full
Sep 26
Last Quarter
Oct 4
New
Oct 11
First Quarter

Hourly Weather History & Observations

Time (EDT) Temp. Heat Index Dew Point Humidity Pressure Visibility Wind Dir Wind Speed Gust Speed Precip Events Conditions
12:15 AM 73.4 °F - 71.6 °F 94% 29.94 in 7.0 mi Calm Calm - N/A   Clear
12:35 AM 73.4 °F - 71.6 °F 94% 29.93 in 10.0 mi Calm Calm - N/A   Scattered Clouds
12:55 AM 73.4 °F - 71.6 °F 94% 29.93 in 10.0 mi Calm Calm - N/A   Scattered Clouds
1:15 AM 73.4 °F - 71.6 °F 94% 29.93 in 10.0 mi Calm Calm - N/A   Clear
1:35 AM 71.6 °F - 71.6 °F 100% 29.93 in 7.0 mi Calm Calm - N/A   Clear
1:55 AM 71.6 °F - 71.6 °F 100% 29.93 in 7.0 mi Calm Calm - N/A   Clear
2:15 AM 71.6 °F - 71.6 °F 100% 29.93 in 3.0 mi Calm Calm - N/A   Clear
2:35 AM 71.6 °F - 71.6 °F 100% 29.92 in 1.8 mi Calm Calm - N/A   Mostly Cloudy
2:55 AM 71.6 °F - 71.6 °F 100% 29.92 in 5.0 mi Calm Calm - N/A   Mostly Cloudy
3:15 AM 71.6 °F - 71.6 °F 100% 29.91 in 1.0 mi NE 3.5 mph - N/A   Overcast
3:35 AM 71.6 °F - 71.6 °F 100% 29.91 in 0.2 mi Calm Calm - N/A Fog Fog
3:55 AM 71.6 °F - 71.6 °F 100% 29.90 in 0.5 mi Calm Calm - N/A Fog Fog
4:15 AM 71.6 °F - 71.6 °F 100% 29.90 in 1.0 mi Calm Calm - N/A   Mostly Cloudy
4:35 AM 71.6 °F - 71.6 °F 100% 29.90 in 5.0 mi Calm Calm - N/A   Scattered Clouds
4:55 AM 71.6 °F - 71.6 °F 100% 29.90 in 2.0 mi Calm Calm - N/A   Scattered Clouds
5:15 AM 71.6 °F - 71.6 °F 100% 29.90 in 0.2 mi Calm Calm - N/A Fog Fog
5:35 AM 71.6 °F - 69.8 °F 94% 29.90 in 0.2 mi Calm Calm - N/A Fog Fog
5:50 AM 71.6 °F - 71.6 °F 100% 29.90 in 1.5 mi Calm Calm - N/A   Clear
5:55 AM 69.8 °F - 69.8 °F 100% 29.90 in 0.2 mi Calm Calm - N/A Fog Fog
6:15 AM 71.6 °F - 69.8 °F 94% 29.90 in 3.0 mi Calm Calm - N/A   Overcast
6:35 AM 71.6 °F - 69.8 °F 94% 29.90 in 0.2 mi Calm Calm - N/A Fog Fog
6:50 AM 71.6 °F - 71.6 °F 100% 29.90 in 1.0 mi Calm Calm - N/A   Clear
7:16 AM 71.6 °F - 71.6 °F 100% 29.91 in 3.0 mi Calm Calm - N/A   Clear
7:50 AM 71.6 °F - 71.6 °F 100% 29.91 in 3.0 mi Calm Calm - N/A   Clear
8:50 AM 73.4 °F - 71.6 °F 94% 29.92 in 10.0 mi Calm Calm - N/A   Clear
9:50 AM 78.8 °F - 71.6 °F 78% 29.93 in 15.0 mi Calm Calm - N/A   Clear
10:50 AM 80.6 °F 83.9 °F 69.8 °F 70% 29.92 in 15.0 mi Calm Calm - N/A   Partly Cloudy
11:50 AM 84.2 °F 87.3 °F 68.0 °F 58% 29.92 in 15.0 mi NW 3.5 mph - N/A   Scattered Clouds
12:52 PM 87.8 °F 91.4 °F 68.0 °F 52% 29.90 in 20.0 mi Calm Calm - N/A   Mostly Cloudy
1:50 PM 87.8 °F 90.4 °F 66.2 °F 49% 29.88 in 20.0 mi Variable 3.5 mph - N/A   Mostly Cloudy
2:55 PM 89.6 °F 91.1 °F 64.4 °F 43% 29.85 in 20.0 mi Calm Calm - N/A   Mostly Cloudy
3:52 PM 87.8 °F 90.4 °F 66.2 °F 49% 29.83 in 20.0 mi NNE 3.5 mph - N/A   Mostly Cloudy
4:53 PM 87.8 °F 90.4 °F 66.2 °F 49% 29.83 in 20.0 mi WSW 8.1 mph - N/A   Mostly Cloudy
5:52 PM 82.4 °F 86.3 °F 69.8 °F 66% 29.84 in 20.0 mi West 6.9 mph - N/A   Mostly Cloudy
6:51 PM 82.4 °F 86.3 °F 69.8 °F 66% 29.83 in 20.0 mi NW 8.1 mph - N/A   Mostly Cloudy
7:50 PM 80.6 °F 83.2 °F 68.0 °F 65% 29.84 in 20.0 mi Calm Calm - N/A   Mostly Cloudy
8:54 PM 80.6 °F 83.2 °F 68.0 °F 65% 29.86 in 15.0 mi Calm Calm - N/A   Scattered Clouds
9:51 PM 78.8 °F - 69.8 °F 74% 29.87 in 15.0 mi Calm Calm - N/A   Scattered Clouds
10:55 PM 78.8 °F - 69.8 °F 74% 29.88 in 10.0 mi Calm Calm - N/A   Clear
11:15 PM 77.0 °F - 69.8 °F 78% 29.88 in 10.0 mi Calm Calm - N/A   Clear
11:35 PM 77.0 °F - 69.8 °F 78% 29.88 in 10.0 mi Calm Calm - N/A   Clear
11:55 PM 75.2 °F - 69.8 °F 83% 29.87 in 10.0 mi Calm Calm - N/A   Clear